Date String (YYYY-MM-DD hh:mm:ss) UTC,Instrument flags,Ambient pressure (hPa),Sample flow (lpm),Bypass flow (lpm),Sample temperature (°C),Ambient temperature (°C),ASC tube jacket temperature (°C),LED temperature (°C),Box temperature (°C),Sample RH (%),Span deviation,Mass concentration (μg/m³),Mass concentration (μg/m³),Mass concentration (μg/m³)
DateTimeUTC,F1_M11,P_M11,Q1_M11,Q2_M11,T1_M11,T2_M11,T3_M11,T4_M11,T5_M11,U1_M11,ZSPAN_M11,X0_M11,X2_M11,X1_M11
2021-11-22 16:00:00,,0832.5,5.00,0.00,24.3,23.5,00.0,33.2,26.2,10.3,0000.0,0010.02,0004.23,0003.75
2021-11-22 16:01:00,,0832.6,4.98,0.00,24.3,23.5,00.0,33.2,26.2,10.4,0000.0,0009.37,0004.16,0003.73
2021-11-22 16:02:00,,0832.6,5.01,0.00,24.3,23.6,00.0,33.2,26.2,10.4,0000.0,0009.02,0004.08,0003.71
2021-11-22 16:03:00,,0832.6,5.00,0.00,24.3,23.6,00.0,33.2,26.2,10.3,0000.0,0009.19,0004.05,0003.67
2021-11-22 16:04:00,,0832.6,5.00,0.00,24.4,23.6,00.0,33.2,26.3,10.5,0000.0,0008.96,0004.02,0003.64
2021-11-22 16:05:00,,0832.5,5.01,0.00,24.4,23.6,00.0,33.2,26.3,10.5,0000.0,0008.54,0003.99,0003.63
2021-11-22 16:06:00,,0832.5,5.00,0.00,24.4,23.6,00.0,33.3,26.3,10.6,0000.0,0007.77,0004.00,0003.62
2021-11-22 16:07:00,,0832.5,5.00,0.00,24.4,23.7,00.0,33.3,26.3,10.5,0000.0,0007.89,0004.01,0003.64
2021-11-22 16:08:00,,0832.6,5.00,0.00,24.4,23.7,00.0,33.3,26.3,10.2,0000.0,0008.78,0004.04,0003.66
2021-11-22 16:09:00,,0832.6,5.00,0.00,24.4,23.7,00.0,33.3,26.3,10.1,0000.0,0009.07,0004.05,0003.66
2021-11-22 16:10:00,,0832.7,5.00,0.00,24.4,23.7,00.0,33.3,26.3,10.3,0000.0,0009.17,0004.08,0003.66
2021-11-22 16:11:00,,0832.7,5.01,0.00,24.5,23.7,00.0,33.3,26.3,10.2,0000.0,0009.24,0004.08,0003.65
2021-11-22 16:12:00,,0832.6,4.99,0.00,24.5,23.7,00.0,33.4,26.4,10.2,0000.0,0010.00,0004.13,0003.64
2021-11-22 16:13:00,,0832.5,5.00,0.00,24.5,23.8,00.0,33.4,26.4,09.9,0000.0,0010.38,0004.17,0003.64
2021-11-22 16:14:00,,0832.5,5.00,0.00,24.5,23.8,00.0,33.4,26.4,09.8,0000.0,0010.66,0004.18,0003.61
2021-11-22 16:15:00,,0832.5,5.00,0.00,24.5,23.8,00.0,33.4,26.4,10.0,0000.0,0011.47,0004.20,0003.58
2021-11-22 16:16:00,,0832.6,4.99,0.00,24.5,23.8,00.0,33.4,26.4,09.9,0000.0,0011.52,0004.19,0003.56
2021-11-22 16:17:00,,0832.6,5.00,0.00,24.6,23.8,00.0,33.4,26.5,09.6,0000.0,0012.47,0004.17,0003.53
2021-11-22 16:18:00,,0832.6,5.00,0.00,24.6,23.8,00.0,33.5,26.5,09.6,0000.0,0011.93,0004.14,0003.49
2021-11-22 16:19:00,,0832.6,5.00,0.00,24.6,23.9,00.0,33.5,26.5,09.1,0000.0,0011.20,0004.11,0003.45
2021-11-22 16:20:00,,0832.6,5.01,0.00,24.6,23.9,00.0,33.5,26.5,09.0,0000.0,0010.80,0004.03,0003.40
2021-11-22 16:21:00,,0832.6,5.00,0.00,24.6,23.9,00.0,33.5,26.5,09.0,0000.0,0011.39,0003.98,0003.37
2021-11-22 16:22:00,,0832.6,4.99,0.00,24.7,23.9,00.0,33.5,26.6,09.1,0000.0,0011.48,0003.91,0003.33
2021-11-22 16:23:00,,0832.6,5.00,0.00,24.7,24.0,00.0,33.5,26.6,09.1,0000.0,0010.82,0003.82,0003.29
2021-11-22 16:24:00,,0832.6,4.99,0.00,24.7,24.0,00.0,33.6,26.6,09.0,0000.0,0010.83,0003.77,0003.26
2021-11-22 16:25:00,,0832.7,5.01,0.00,24.7,24.0,00.0,33.6,26.6,09.2,0000.0,0010.36,0003.69,0003.25
2021-11-22 16:26:00,,0832.6,5.00,0.00,24.7,24.0,00.0,33.6,26.6,09.3,0000.0,0009.76,0003.67,0003.25
2021-11-22 16:27:00,,0832.6,5.01,0.00,24.7,24.0,00.0,33.6,26.6,09.1,0000.0,0009.64,0003.66,0003.22
2021-11-22 16:28:00,,0832.6,5.00,0.00,24.8,24.0,00.0,33.6,26.7,09.2,0000.0,0009.00,0003.63,0003.22
2021-11-22 16:29:00,,0832.7,5.00,0.00,24.8,24.0,00.0,33.7,26.7,09.4,0000.0,0009.47,0003.63,0003.22
2021-11-22 16:30:00,,0832.7,5.00,0.00,24.8,24.1,00.0,33.7,26.7,09.4,0000.0,0009.41,0003.63,0003.23
2021-11-22 16:31:00,,0832.6,5.00,0.00,24.8,24.1,00.0,33.7,26.7,09.5,0000.0,0009.50,0003.65,0003.25
2021-11-22 16:32:00,,0832.6,5.00,0.00,24.8,24.1,00.0,33.7,26.7,09.8,0000.0,0008.89,0003.67,0003.29
2021-11-22 16:33:00,,0832.6,5.01,0.00,24.9,24.2,00.0,33.7,26.8,09.8,0000.0,0008.81,0003.76,0003.35
2021-11-22 16:34:00,,0832.7,4.99,0.00,24.9,24.2,00.0,33.7,26.8,09.9,0000.0,0008.92,0003.85,0003.41
2021-11-22 16:35:00,,0832.7,5.01,0.00,24.9,24.2,00.0,33.8,26.8,09.8,0000.0,0008.75,0003.90,0003.45
2021-11-22 16:36:00,,0832.7,4.99,0.00,24.9,24.2,00.0,33.8,26.8,09.8,0000.0,0009.30,0003.97,0003.50
2021-11-22 16:37:00,,0832.7,5.01,0.00,25.0,24.2,00.0,33.8,26.9,09.9,0000.0,0009.78,0003.99,0003.54
2021-11-22 16:38:00,,0832.6,5.01,0.00,25.0,24.2,00.0,33.8,26.9,09.9,0000.0,0010.41,0004.02,0003.58
2021-11-22 16:39:00,,0832.6,5.00,0.00,25.0,24.3,00.0,33.8,26.9,09.9,0000.0,0010.50,0004.08,0003.62
2021-11-22 16:40:00,,0832.6,5.00,0.00,25.0,24.3,00.0,33.9,26.9,09.8,0000.0,0010.05,0004.11,0003.64
2021-11-22 16:41:00,,0832.6,5.01,0.00,25.0,24.3,00.0,33.9,26.9,09.7,0000.0,0010.00,0004.12,0003.67
2021-11-22 16:42:00,,0832.6,4.99,0.00,25.0,24.3,00.0,33.9,27.0,09.8,0000.0,0010.40,0004.20,0003.70
2021-11-22 16:43:00,,0832.6,5.01,0.00,25.1,24.4,00.0,33.9,27.0,09.7,0000.0,0010.70,0004.24,0003.71
2021-11-22 16:44:00,,0832.6,5.00,0.00,25.1,24.4,00.0,33.9,27.0,09.8,0000.0,0010.75,0004.23,0003.69
2021-11-22 16:45:00,,0832.6,4.99,0.00,25.1,24.4,00.0,34.0,27.0,09.9,0000.0,0010.66,0004.19,0003.68
2021-11-22 16:46:00,,0832.6,5.00,0.00,25.1,24.4,00.0,34.0,27.1,09.7,0000.0,0010.56,0004.15,0003.66
2021-11-22 16:47:00,,0832.5,5.00,0.00,25.2,24.5,00.0,34.0,27.1,09.6,0000.0,0010.68,0004.13,0003.65
2021-11-22 16:48:00,,0832.5,4.99,0.00,25.2,24.5,00.0,34.0,27.1,09.6,0000.0,0010.45,0004.13,0003.62
2021-11-22 16:49:00,,0832.5,5.01,0.00,25.2,24.5,00.0,34.0,27.1,09.3,0000.0,0009.68,0004.07,0003.56
2021-11-22 16:50:00,,0832.5,5.00,0.00,25.2,24.5,00.0,34.1,27.1,09.5,0000.0,0009.61,0004.04,0003.52
2021-11-22 16:51:00,,0832.5,4.99,0.00,25.3,24.5,00.0,34.1,27.2,09.5,0000.0,0009.34,0004.01,0003.47
2021-11-22 16:52:00,,0832.5,5.00,0.00,25.3,24.6,00.0,34.1,27.2,09.6,0000.0,0008.99,0003.97,0003.43
2021-11-22 16:53:00,,0832.6,5.00,0.00,25.3,24.6,00.0,34.1,27.2,09.6,0000.0,0009.94,0003.92,0003.39
2021-11-22 16:54:00,,0832.6,5.00,0.00,25.3,24.6,00.0,34.1,27.2,09.4,0000.0,0010.34,0003.90,0003.35
2021-11-22 16:55:00,,0832.6,5.00,0.00,25.3,24.6,00.0,34.2,27.3,09.5,0000.0,0010.42,0003.86,0003.31
2021-11-22 16:56:00,,0832.6,5.00,0.00,25.4,24.7,00.0,34.2,27.3,09.5,0000.0,0010.46,0003.84,0003.27
2021-11-22 16:57:00,,0832.6,5.00,0.00,25.4,24.7,00.0,34.2,27.3,09.3,0000.0,0010.44,0003.83,0003.23
2021-11-22 16:58:00,,0832.6,4.99,0.00,25.4,24.7,00.0,34.2,27.3,09.4,0000.0,0009.67,0003.80,0003.20
2021-11-22 16:59:00,,0832.6,5.02,0.00,25.4,24.7,00.0,34.3,27.4,09.4,0000.0,0009.54,0003.78,0003.17
